Hourly Data Report for June 28, 2021

WINNIPEG THE FORKS
MANITOBA
Current Station Operator: ECCC - MSC

49°53'18.008" N
97°07'46.007" W
230.00 m
5023262
71579
XWN

Download Data

Hourly Data (June 2021)
Hourly Data Report for June 28, 2021
TIME
LST
Temp Definition
°C
Dew Point Definition
°C
Rel Hum Definition
%
Precip. Amount Definition
mm

Wind Dir Definition
10's deg

Wind Spd Definition
km/h
Visibility Definition
km
Stn Press Definition
kPa
Hmdx Definition


Wind Chill Definition


Weather Definition


00:00 18.7 13.4 71 0.0 34 9   98.89     LegendNANA
01:00 18.1 13.6 75 0.0 32 6   98.93     LegendNANA
02:00 17.1 13.4 79 0.0 33 7   98.95     LegendNANA
03:00 16.3 13.2 82 0.0 33 9   98.99     LegendNANA
04:00 15.8 13.3 85 0.0 33 7   99.01     LegendNANA
05:00 15.6 13.4 87 0.0 35 6   99.06     LegendNANA
06:00 16.3 13.5 83 0.0 35 6   99.10     LegendNANA
07:00 17.6 14.1 80 0.0 35 8   99.13     LegendNANA
08:00 18.4 14.0 76 0.0 35 12   99.20     LegendNANA
09:00 19.8 14.2 70 0.0 36 10   99.23     LegendNANA
10:00 20.9 12.9 60 0.0 34 10   99.26     LegendNANA
11:00 22.0 9.9 46 0.0 36 13   99.25     LegendNANA
12:00 22.9 7.6 37 0.0 35 12   99.26     LegendNANA
13:00 23.7 6.9 34 0.0 35 11   99.25     LegendNANA
14:00 25.0 7.5 33 0.0 1 11   99.21 25   LegendNANA
15:00 25.4 7.1 31 0.0 1 9   99.18 25   LegendNANA
16:00 25.6 7.1 31 0.0 1 8   99.16 26   LegendNANA
17:00 26.0 7.5 31 0.0 2 8   99.14 26   LegendNANA
18:00 25.8 8.3 33 0.0 1 7   99.14 26   LegendNANA
19:00 24.8 8.3 35 0.0 1 7   99.14 25   LegendNANA
20:00 23.6 8.0 37 0.0 2 5   99.14     LegendNANA
21:00 21.3 8.5 44 0.0   0   99.17     LegendNANA
22:00 20.7 8.9 47 0.0 0 1   99.19     LegendNANA
23:00 18.6 11.5 63 0.0   0   99.21     LegendNANA

Notes on Data Quality.

Legend

  • E = Estimated
  • M = Missing
  • NA = Not Available*
  • [empty] = Indicates an unobserved value
Date modified: